TimePDT,TemperatureF,Dew PointF,Humidity,Sea Level PressureIn,VisibilityMPH,Wind Direction,Wind SpeedMPH,Gust SpeedMPH,PrecipitationIn,Events,Conditions,WindDirDegrees,DateUTC
12:56 AM,48.9,17.1,28,29.82,10.0,NW,8.1,-,N/A,,Clear,320,2013-04-30 07:56:00
1:56 AM,41.0,16.0,36,29.83,10.0,West,4.6,-,N/A,,Clear,280,2013-04-30 08:56:00
2:56 AM,44.1,16.0,32,29.82,10.0,NW,12.7,-,N/A,,Clear,320,2013-04-30 09:56:00
3:56 AM,43.0,16.0,34,29.84,10.0,NW,10.4,19.6,N/A,,Clear,310,2013-04-30 10:56:00
4:56 AM,41.0,15.1,35,29.84,10.0,NW,12.7,-,N/A,,Clear,320,2013-04-30 11:56:00
5:56 AM,37.0,15.1,41,29.88,10.0,NW,12.7,-,N/A,,Clear,310,2013-04-30 12:56:00
6:56 AM,39.9,17.1,40,29.92,10.0,NW,16.1,-,N/A,,Clear,320,2013-04-30 13:56:00
7:56 AM,45.0,16.0,31,29.94,10.0,NNW,9.2,-,N/A,,Clear,330,2013-04-30 14:56:00
8:56 AM,48.0,12.0,24,29.96,10.0,NNW,16.1,21.9,N/A,,Clear,340,2013-04-30 15:56:00
9:56 AM,50.0,12.0,22,29.98,10.0,NNW,12.7,-,N/A,,Clear,330,2013-04-30 16:56:00
10:56 AM,52.0,9.0,18,29.99,10.0,NNW,15.0,20.7,N/A,,Clear,340,2013-04-30 17:56:00
11:56 AM,55.0,7.0,15,29.98,10.0,NW,16.1,21.9,N/A,,Clear,310,2013-04-30 18:56:00
12:56 PM,57.0,6.1,13,29.96,10.0,NW,8.1,18.4,N/A,,Clear,320,2013-04-30 19:56:00
1:56 PM,60.1,-5.1,7,29.97,10.0,NNW,8.1,-,N/A,,Clear,330,2013-04-30 20:56:00
2:56 PM,61.0,-5.1,7,29.96,10.0,NNW,17.3,23.0,N/A,,Clear,330,2013-04-30 21:56:00
3:56 PM,61.0,-7.1,6,29.97,10.0,WNW,17.3,25.3,N/A,,Clear,300,2013-04-30 22:56:00
4:56 PM,59.0,-6.0,7,29.99,10.0,NNW,18.4,33.4,N/A,,Clear,330,2013-04-30 23:56:00
5:56 PM,57.0,-6.0,8,30.03,10.0,North,16.1,24.2,N/A,,Clear,350,2013-05-01 00:56:00
6:56 PM,54.0,-6.0,8,30.05,10.0,NNW,18.4,28.8,N/A,,Clear,340,2013-05-01 01:56:00
7:56 PM,48.9,-2.9,12,30.09,10.0,North,13.8,-,N/A,,Clear,350,2013-05-01 02:56:00
8:56 PM,39.0,-2.9,17,30.14,10.0,NNW,4.6,-,N/A,,Clear,340,2013-05-01 03:56:00
9:56 PM,44.1,-6.0,12,30.17,10.0,NNW,11.5,-,N/A,,Clear,340,2013-05-01 04:56:00
10:56 PM,39.0,1.0,20,30.19,10.0,NW,6.9,-,N/A,,Clear,320,2013-05-01 05:56:00
11:56 PM,39.0,1.9,21,30.22,10.0,NNW,6.9,-,N/A,,Clear,330,2013-05-01 06:56:00